Location: *
(53.9002°N, 27.5624°E)
Time: 09:22:37
(UTC+00:00)

USA 229 DEB - Pass Details

Date: 12 November 2019
Orbit: 997 x 1215 km, 63.4° (Epoch: 04 December)

Event Time Altitude Azimuth Distance (km) Brightness Sun altitude
Rises 16:38:51 0° 207° (SSW) 3,732 6.9 -20.8°
Reaches altitude 10° 16:41:26 10° 203° (SSW) 2,802 6.2 -21.2°
Maximum altitude 16:47:51 56° 127° (SE) 1,231 3.7 -22.2°
Enters shadow 16:49:59 41° 74° (ENE) 1,506 4.0 -22.5°
